Location: *
(47.8307°S, 178.3954°E)
Time: 22:57:58
(UTC+00:00)

CZ-4B R/B - Pass Details

Date: 12 August 2024
Orbit: 477 x 600 km, 97.9° (Epoch: 19 September)

Event Time Altitude Azimuth Distance (km) Brightness Sun altitude
Rises 18:22:50 0° 4° (N) 2,607 7.5 -8.9°
Reaches altitude 10° 18:24:58 10° 359° (N) 1,714 6.5 -8.6°
Maximum altitude 18:28:34 53° 281° (W) 623 3.8 -8.0°
Drops below altitude 10° 18:32:08 10° 203° (SSW) 1,702 6.0 -7.4°
Sets 18:34:15 0° 197° (SSW) 2,586 6.9 -7.0°
